CST,Max TemperatureF,Mean TemperatureF,Min TemperatureF,Max Dew PointF,MeanDew PointF,Min DewpointF,Max Humidity, Mean Humidity, Min Humidity, Max Sea Level PressureIn, Mean Sea Level PressureIn, Min Sea Level PressureIn, Max VisibilityMiles, Mean VisibilityMiles, Min VisibilityMiles, Max Wind SpeedMPH, Mean Wind SpeedMPH, Max Gust SpeedMPH,PrecipitationIn, CloudCover, Events, WindDirDegrees
2013-11-1,73,60,46,58,51,42,100,82,33,30.00,29.93,29.89,10,10,5,7,2,,0.00,0,,240
2013-11-2,66,54,43,53,44,34,100,69,32,30.27,30.14,29.99,10,10,10,16,3,23,0.00,1,,341
2013-11-3,64,50,37,46,41,36,100,79,36,30.31,30.24,30.18,10,10,10,10,1,17,0.00,0,,91
2013-11-4,71,58,44,56,50,44,100,75,50,30.26,30.20,30.16,10,10,4,10,2,,0.00,0,,140
2013-11-5,76,66,57,64,58,53,90,79,60,30.22,30.16,30.10,10,10,10,13,3,21,0.00,2,,141
2013-11-6,73,62,50,68,61,46,100,91,78,30.31,30.15,30.07,10,9,2,14,6,21,0.37,8,Rain,224
2013-11-7,60,50,39,45,40,33,100,75,36,30.47,30.40,30.31,10,10,10,14,8,23,0.00,3,,14
2013-11-8,62,48,35,51,42,35,100,82,38,30.42,30.34,30.24,10,10,4,6,0,,0.00,0,,90
2013-11-9,56,50,45,53,49,45,100,92,73,30.31,30.28,30.24,10,10,5,0,0,,0.12,5,Rain,-1
2013-11-10,68,57,46,53,47,35,100,81,30,30.39,30.33,30.29,10,8,0,7,1,,0.00,3,Fog,47
2013-11-11,71,57,43,57,49,43,100,84,41,30.33,30.27,30.21,10,9,4,5,0,,0.00,0,,20
2013-11-12,53,44,34,51,39,24,100,76,53,30.67,30.49,30.28,10,9,1,21,6,28,0.00,2,,22
2013-11-13,50,39,28,33,26,18,100,71,29,30.70,30.60,30.47,10,10,10,12,4,17,0.00,0,,41
2013-11-14,60,43,26,41,30,18,99,72,19,30.47,30.32,30.15,10,10,10,8,1,,0.00,1,,161
2013-11-15,66,54,41,59,52,40,99,90,73,30.16,30.08,30.01,10,10,5,13,1,,0.10,5,Rain,144
2013-11-16,73,65,57,68,65,56,100,93,82,30.03,29.96,29.88,10,6,0,16,7,24,0.00,7,Fog-Rain,166
2013-11-17,81,74,65,73,70,66,100,90,66,30.01,29.89,29.84,10,8,2,16,9,22,0.10,5,Rain-Thunderstorm,204
2013-11-18,70,60,51,65,39,30,88,47,23,30.24,30.16,30.02,10,10,10,14,7,18,0.00,1,,29
2013-11-19,62,52,40,39,31,16,85,49,17,30.29,30.21,30.15,10,10,10,13,4,18,0.00,0,,65
2013-11-20,68,52,35,45,36,27,97,67,22,30.18,30.12,30.05,10,10,10,7,1,,0.00,0,,143
2013-11-21,67,58,50,66,57,40,100,89,63,30.19,30.14,30.10,10,6,0,13,5,,0.09,7,Fog-Rain-Thunderstorm,160
2013-11-22,68,58,48,68,61,47,100,99,94,30.35,30.26,30.15,10,6,1,14,7,20,0.87,8,Rain-Thunderstorm,67
2013-11-23,48,43,37,47,40,31,97,89,71,30.53,30.44,30.34,10,8,2,18,11,24,0.09,6,Rain,21
2013-11-24,44,38,31,32,23,18,82,59,38,30.60,30.50,30.42,10,10,10,16,9,25,0.00,1,Rain,38
2013-11-25,37,34,32,37,33,25,100,94,66,30.40,30.25,30.04,10,7,2,13,6,25,0.07,8,Rain,31
2013-11-26,39,38,36,39,37,35,100,98,91,30.23,30.09,30.01,10,7,2,16,9,24,0.02,7,Rain,347
2013-11-27,43,34,26,35,27,19,99,79,38,30.46,30.37,30.23,10,10,10,14,5,20,0.00,0,,353
2013-11-28,50,36,23,36,27,21,100,80,32,30.53,30.48,30.44,10,10,10,6,1,,0.00,0,,193
2013-11-29,57,41,25,37,29,23,100,77,27,30.59,30.52,30.44,10,10,10,6,1,,0.00,0,,79
2013-11-30,64,46,27,43,33,19,100,71,20,30.47,30.38,30.26,10,10,10,9,2,,0.00,1,,194